Time,TemperatureF,DewpointF,PressureIn,WindDirection,WindDirectionDegrees,WindSpeedMPH,WindSpeedGustMPH,Humidity,HourlyPrecipIn,Conditions,Clouds,dailyrainin,SoftwareType,DateUTC
2013-05-04 00:00:00,67.1,22.1,29.90,SE,135,3.0,9.0,18,0.00,CLR,,0.00,WeatherDisplay:10.37,2013-05-04 05:00:00,
2013-05-04 00:30:00,67.9,21.4,29.89,North,0,2.0,8.0,17,0.00,CLR,,0.00,WeatherDisplay:10.37,2013-05-04 05:30:00,
2013-05-04 01:00:00,67.9,24.1,29.90,WNW,292,2.0,8.0,19,0.00,CLR,,0.00,WeatherDisplay:10.37,2013-05-04 06:00:00,
2013-05-04 01:30:00,68.6,22.0,29.90,NW,315,2.0,12.0,17,0.00,CLR,,0.00,WeatherDisplay:10.37,2013-05-04 06:30:00,
2013-05-04 02:00:00,68.6,20.6,29.91,SSE,158,3.0,13.0,16,0.00,CLR,,0.00,WeatherDisplay:10.37,2013-05-04 07:00:00,
2013-05-04 02:30:00,70.1,21.8,29.89,SSE,158,3.0,11.0,16,0.00,CLR,,0.00,WeatherDisplay:10.37,2013-05-04 07:30:00,
2013-05-04 03:00:00,71.1,21.1,29.87,ENE,68,3.0,13.0,15,0.00,CLR,,0.00,WeatherDisplay:10.37,2013-05-04 08:00:00,
2013-05-04 03:30:00,72.1,21.9,29.86,ENE,68,3.0,11.0,15,0.00,CLR,,0.00,WeatherDisplay:10.37,2013-05-04 08:30:00,
2013-05-04 04:00:00,72.1,21.9,29.85,ESE,112,3.0,13.0,15,0.00,CLR,,0.00,WeatherDisplay:10.37,2013-05-04 09:00:00,
2013-05-04 04:30:00,72.0,20.1,29.84,NE,45,6.0,16.0,14,0.00,CLR,,0.00,WeatherDisplay:10.37,2013-05-04 09:30:00,
2013-05-04 05:00:00,71.5,21.4,29.84,NE,45,3.0,12.0,15,0.00,CLR,,0.00,WeatherDisplay:10.37,2013-05-04 10:00:00,
2013-05-04 05:30:00,71.5,21.4,29.84,NE,45,3.0,10.0,15,0.00,CLR,,0.00,WeatherDisplay:10.37,2013-05-04 10:30:00,
2013-05-04 06:00:00,72.5,22.2,29.82,ENE,68,3.0,9.0,15,0.00,CLR,,0.00,WeatherDisplay:10.37,2013-05-04 11:00:00,
2013-05-04 06:30:00,73.7,21.5,29.80,ENE,68,3.0,10.0,14,0.00,CLR,,0.00,WeatherDisplay:10.37,2013-05-04 11:30:00,
2013-05-04 07:00:00,71.1,19.4,29.82,NE,45,5.0,15.0,14,0.00,CLR,,0.00,WeatherDisplay:10.37,2013-05-04 12:00:00,
2013-05-04 07:30:00,70.9,19.3,29.83,NE,45,3.0,12.0,14,0.00,CLR,,0.00,WeatherDisplay:10.37,2013-05-04 12:30:00,
2013-05-04 08:00:00,67.4,18.1,29.85,ENE,68,3.0,13.0,15,0.00,CLR,,0.00,WeatherDisplay:10.37,2013-05-04 13:00:00,
2013-05-04 08:30:00,65.6,18.1,29.82,NE,45,2.0,10.0,16,0.00,CLR,,0.00,WeatherDisplay:10.37,2013-05-04 13:30:00,
2013-05-04 09:00:00,64.5,18.7,29.83,ENE,68,3.0,11.0,17,0.00,CLR,,0.00,WeatherDisplay:10.37,2013-05-04 14:00:00,
2013-05-04 09:30:00,62.9,18.7,29.74,NE,45,2.0,10.0,18,0.00,CLR,,0.00,WeatherDisplay:10.37,2013-05-04 14:30:00,
2013-05-04 10:00:00,61.3,18.6,29.76,NE,45,3.0,8.0,19,0.00,CLR,,0.00,WeatherDisplay:10.37,2013-05-04 15:00:00,
2013-05-04 10:30:00,60.1,18.8,29.75,ENE,68,2.0,10.0,20,0.00,CLR,,0.00,WeatherDisplay:10.37,2013-05-04 15:30:00,
2013-05-04 11:00:00,58.6,18.7,29.77,ENE,68,2.0,8.0,21,0.00,CLR,,0.00,WeatherDisplay:10.37,2013-05-04 16:00:00,
2013-05-04 11:30:00,58.6,18.7,29.75,ESE,112,1.0,10.0,21,0.00,CLR,,0.00,WeatherDisplay:10.37,2013-05-04 16:30:00,
2013-05-04 12:00:00,53.2,18.2,29.78,ESE,112,0.0,1.0,25,0.00,CLR,,0.00,WeatherDisplay:10.37,2013-05-04 17:00:00,
2013-05-04 12:30:00,48.6,16.1,29.81,ESE,112,0.0,1.0,27,0.00,CLR,,0.00,WeatherDisplay:10.37,2013-05-04 17:30:00,
2013-05-04 13:00:00,47.4,16.7,29.83,ESE,112,0.0,1.0,29,0.00,CLR,,0.00,WeatherDisplay:10.37,2013-05-04 18:00:00,
2013-05-04 13:30:00,44.8,16.7,29.85,ESE,112,0.0,1.0,32,0.00,CLR,,0.00,WeatherDisplay:10.37,2013-05-04 18:30:00,
2013-05-04 14:00:00,44.9,18.2,29.86,ESE,112,0.0,3.0,34,0.00,CLR,,0.00,WeatherDisplay:10.37,2013-05-04 19:00:00,
2013-05-04 14:30:00,45.1,17.7,29.84,ESE,112,0.0,3.0,33,0.00,CLR,,0.00,WeatherDisplay:10.37,2013-05-04 19:30:00,
2013-05-04 15:00:00,53.2,19.2,29.80,ESE,112,3.0,8.0,26,0.00,CLR,,0.00,WeatherDisplay:10.37,2013-05-04 20:00:00,
2013-05-04 15:30:00,51.9,17.1,29.79,ESE,112,1.0,8.0,25,0.00,CLR,,0.00,WeatherDisplay:10.37,2013-05-04 20:30:00,
2013-05-04 16:00:00,51.6,15.9,29.80,ESE,112,2.0,7.0,24,0.00,CLR,,0.00,WeatherDisplay:10.37,2013-05-04 21:00:00,
2013-05-04 16:30:00,48.2,15.7,29.82,ESE,112,0.0,3.0,27,0.00,CLR,,0.00,WeatherDisplay:10.37,2013-05-04 21:30:00,
2013-05-04 17:00:00,42.8,14.9,29.85,ESE,112,0.0,1.0,32,0.00,CLR,,0.00,WeatherDisplay:10.37,2013-05-04 22:00:00,
2013-05-04 17:30:00,39.6,14.8,29.87,ESE,112,0.0,1.0,36,0.00,CLR,,0.00,WeatherDisplay:10.37,2013-05-04 22:30:00,
2013-05-04 18:00:00,37.8,14.4,29.88,ESE,112,0.0,2.0,38,0.00,CLR,,0.00,WeatherDisplay:10.37,2013-05-04 23:00:00,
2013-05-04 18:30:00,37.5,15.9,29.90,ESE,112,0.0,2.0,41,0.00,CLR,,0.00,WeatherDisplay:10.37,2013-05-04 23:30:00,
2013-05-04 19:00:00,38.3,16.1,29.90,ESE,112,0.0,2.0,40,0.00,CLR,,0.00,WeatherDisplay:10.37,2013-05-05 00:00:00,
2013-05-04 19:30:00,40.9,16.6,29.92,ESE,112,0.0,1.0,37,0.00,CLR,,0.00,WeatherDisplay:10.37,2013-05-05 00:30:00,
2013-05-04 20:00:00,42.1,17.0,29.92,ESE,112,0.0,1.0,36,0.00,CLR,,0.00,WeatherDisplay:10.37,2013-05-05 01:00:00,
2013-05-04 20:30:00,45.5,16.6,29.93,ESE,112,0.0,3.0,31,0.00,CLR,,0.00,WeatherDisplay:10.37,2013-05-05 01:30:00,
2013-05-04 21:00:00,55.0,16.8,29.88,ENE,68,2.0,8.0,22,0.00,CLR,,0.00,WeatherDisplay:10.37,2013-05-05 02:00:00,
2013-05-04 21:30:00,56.6,17.1,29.91,ESE,112,3.0,11.0,21,0.00,CLR,,0.00,WeatherDisplay:10.37,2013-05-05 02:30:00,
2013-05-04 22:00:00,55.1,15.8,29.92,ENE,68,3.0,10.0,21,0.00,CLR,,0.00,WeatherDisplay:10.37,2013-05-05 03:00:00,
2013-05-04 22:30:00,58.0,17.1,29.92,East,90,3.0,11.0,20,0.00,CLR,,0.00,WeatherDisplay:10.37,2013-05-05 03:30:00,
2013-05-04 23:00:00,60.5,15.4,29.90,ESE,112,5.0,12.0,17,0.00,CLR,,0.00,WeatherDisplay:10.37,2013-05-05 04:00:00,
2013-05-04 23:30:00,61.0,15.8,29.96,ESE,112,6.0,13.0,17,0.00,CLR,,0.00,WeatherDisplay:10.37,2013-05-05 04:30:00,